DW0490 Weather Reports


Display with metric or nautical units.
time (UTC)temp
F
wind
direction
speed
MPH
gust
MPH
rain 1hr
in
rain 24hr
in
rain mn
in
humidity
%
barometer
mb
20260503232019 68 221 7.0 15.0 0.00 0.00 0.00 58 1012.9
20260503231536 69 244 6.0 15.0 0.00 0.00 0.00 58 1013.0
20260503231022 69 270 5.0 12.0 0.00 0.00 0.00 60 1012.9
20260503230521 68 234 6.0 12.0 0.00 0.00 0.00 62 1013.0
20260503230035 67 238 6.0 11.0 0.00 0.00 0.00 62 1013.0
20260503225521 67 233 5.0 12.0 0.00 0.00 0.00 62 1013.1
20260503225021 67 264 4.0 12.0 0.00 0.00 0.00 62 1013.1
20260503224538 67 212 2.0 12.0 0.00 0.00 0.00 64 1013.0
20260503224021 67 219 4.0 12.0 0.00 0.00 0.00 64 1013.1
20260503223524 67 231 6.0 12.0 0.00 0.00 0.00 65 1013.2
20260503223037 67 207 5.0 10.0 0.00 0.00 0.00 65 1013.3
20260503222519 67 228 3.0 9.0 0.00 0.00 0.00 66 1013.3
20260503222019 67 229 4.0 9.0 0.00 0.00 0.00 66 1013.4
20260503221536 66 226 2.0 9.0 0.00 0.00 0.00 66 1013.4
20260503221017 66 215 4.0 9.0 0.00 0.00 0.00 66 1013.5
20260503220520 66 200 2.0 10.0 0.00 0.00 0.00 67 1013.5
20260503220038 66 0 3.0 10.0 0.00 0.00 0.00 67 1013.6
20260503215516 66 238 3.0 13.0 0.00 0.00 0.00 67 1013.7
20260503215016 66 241 3.0 13.0 0.00 0.00 0.00 67 1013.6
20260503214534 66 238 7.0 13.0 0.00 0.00 0.00 68 1013.7
20260503214016 66 236 3.0 11.0 0.00 0.00 0.00 69 1013.7
20260503213519 66 217 4.0 14.0 0.00 0.00 0.00 69 1013.7
20260503213032 66 214 6.0 14.0 0.00 0.00 0.00 69 1013.7
20260503212516 66 215 6.0 13.0 0.00 0.00 0.00 69 1013.7
20260503212017 66 223 4.0 9.0 0.00 0.00 0.00 70 1013.7
20260503211541 66 226 3.0 9.0 0.00 0.00 0.00 70 1013.8
20260503211019 66 207 1.0 11.0 0.00 0.00 0.00 71 1013.7
20260503210520 66 223 5.0 11.0 0.00 0.00 0.00 70 1013.8
20260503210035 66 220 3.0 10.0 0.00 0.00 0.00 71 1013.7
20260503205524 66 224 3.0 10.0 0.00 0.00 0.00 70 1013.8
20260503205017 67 192 5.0 11.0 0.00 0.00 0.00 70 1013.8
20260503204535 67 248 4.0 11.0 0.00 0.00 0.00 69 1013.8
20260503204016 67 207 1.0 6.0 0.00 0.00 0.00 70 1013.8
20260503203516 67 0 2.0 8.0 0.00 0.00 0.00 70 1013.8
20260503203036 67 0 2.0 8.0 0.00 0.00 0.00 70 1014.0
20260503202516 66 213 1.0 8.0 0.00 0.00 0.00 70 1014.1
20260503202017 66 0 0.0 7.0 0.00 0.00 0.00 71 1014.1
20260503201534 66 223 0.0 7.0 0.00 0.00 0.00 71 1014.1
20260503201017 66 219 2.0 9.0 0.00 0.00 0.00 71 1014.1
20260503200516 66 208 1.0 10.0 0.00 0.00 0.00 70 1014.1
20260503200035 66 219 5.0 10.0 0.00 0.00 0.00 71 1014.2
20260503195517 66 225 2.0 11.0 0.00 0.00 0.00 70 1014.3
20260503195019 66 232 4.0 11.0 0.00 0.00 0.00 70 1014.3
20260503194542 66 0 0.0 9.0 0.00 0.00 0.00 72 1014.4
20260503194020 66 242 3.0 9.0 0.00 0.00 0.00 71 1014.5
20260503193519 66 0 1.0 8.0 0.00 0.00 0.00 71 1014.6
20260503193041 65 218 2.0 8.0 0.00 0.00 0.00 73 1014.8
20260503192518 64 219 2.0 8.0 0.00 0.00 0.00 74 1014.7
20260503192018 64 0 1.0 8.0 0.00 0.00 0.00 74 1014.8
20260503191538 64 222 3.0 8.0 0.00 0.00 0.00 75 1014.9
20260503191021 63 0 2.0 9.0 0.00 0.00 0.00 76 1014.9
20260503190520 63 0 0.0 9.0 0.00 0.00 0.00 76 1015.0
20260503190041 62 235 1.0 8.0 0.00 0.00 0.00 77 1015.0
20260503185519 62 240 2.0 7.0 0.00 0.00 0.00 76 1015.1
20260503185018 61 235 2.0 7.0 0.00 0.00 0.00 78 1015.1
20260503184537 61 223 2.0 7.0 0.00 0.00 0.00 79 1015.1
20260503184019 61 0 1.0 7.0 0.00 0.00 0.00 80 1015.2
20260503183517 61 221 1.0 6.0 0.00 0.00 0.00 81 1015.2
20260503183037 60 221 0.0 6.0 0.00 0.00 0.00 82 1015.2
20260503182523 60 222 3.0 6.0 0.00 0.00 0.00 82 1015.2
20260503182017 61 222 2.0 7.0 0.00 0.00 0.00 82 1015.3
20260503181538 61 225 3.0 9.0 0.00 0.00 0.00 82 1015.3
20260503181020 61 0 1.0 9.0 0.00 0.00 0.00 81 1015.2
20260503180521 61 0 1.0 9.0 0.00 0.00 0.00 81 1015.3
20260503180035 61 0 1.0 7.0 0.00 0.00 0.00 81 1015.2
20260503175521 61 0 0.0 0.0 0.00 0.00 0.00 81 1015.1
20260503175020 61 0 0.0 0.0 0.00 0.00 0.00 81 1015.2
20260503174552 62 0 0.0 0.0 0.00 0.00 0.00 80 1015.1
20260503174019 62 0 0.0 0.0 0.00 0.00 0.00 80 1015.1
20260503173518 61 0 0.0 0.0 0.00 0.00 0.00 79 1015.0
20260503173040 61 0 0.0 0.0 0.00 0.00 0.00 79 1015.0
20260503172518 61 0 0.0 0.0 0.00 0.00 0.00 80 1014.9
20260503172018 61 0 0.0 0.0 0.00 0.00 0.00 80 1014.9
20260503171533 61 0 0.0 3.0 0.00 0.00 0.00 80 1014.9
20260503171019 61 0 0.0 8.0 0.00 0.00 0.00 79 1014.8
20260503170519 61 0 1.0 8.0 0.00 0.00 0.00 79 1014.8
20260503150522 58 0 0.0 0.0 0.00 0.00 0.00 89 1014.2
20260503131021 57 0 0.0 0.0 0.00 0.00 0.00 92 1013.5
20260503130521 57 0 0.0 0.0 0.00 0.00 0.00 92 1013.4
20260503110517 58 0 1.0 6.0 0.00 0.00 0.00 91 1012.9
20260503081545 59 239 3.0 9.0 0.00 0.00 0.00 88 1013.6
20260503081017 59 217 1.0 9.0 0.00 0.00 0.00 88 1013.7
20260503080517 59 217 3.0 9.0 0.00 0.00 0.00 88 1013.8
20260503072520 59 246 5.0 10.0 0.00 0.00 0.00 87 1013.4
20260503072022 59 265 3.0 8.0 0.00 0.00 0.00 87 1013.4
20260503071541 59 267 3.0 7.0 0.00 0.00 0.00 87 1013.4
20260503071018 59 0 0.0 8.0 0.00 0.00 0.00 87 1013.3
20260503070517 59 0 1.0 8.0 0.00 0.00 0.00 87 1013.3
20260503055020 60 0 0.0 9.0 0.00 0.00 0.00 84 1013.1
20260503054536 60 0 2.0 9.0 0.00 0.00 0.00 84 1013.0
20260503054022 60 257 2.0 9.0 0.00 0.00 0.00 84 1013.1
20260503053521 60 253 1.0 8.0 0.00 0.00 0.00 84 1013.1
20260503053035 60 254 1.0 9.0 0.00 0.00 0.00 84 1013.0
20260503052521 60 253 5.0 9.0 0.00 0.00 0.00 84 1013.2
20260503052022 60 259 3.0 9.0 0.00 0.00 0.00 83 1013.1
20260503051535 60 258 4.0 9.0 0.00 0.00 0.00 83 1013.1
20260503051021 60 0 1.0 10.0 0.00 0.00 0.00 83 1013.1
20260503050520 60 253 3.0 10.0 0.00 0.00 0.00 83 1013.0
20260503050035 61 248 4.0 10.0 0.00 0.00 0.00 83 1013.1
20260503045521 61 254 4.0 9.0 0.00 0.00 0.00 83 1013.0
20260503045019 61 260 3.0 8.0 0.00 0.00 0.00 82 1013.0
20260503044545 61 258 2.0 7.0 0.00 0.00 0.00 82 1013.0
20260503044021 61 258 2.0 7.0 0.00 0.00 0.00 82 1013.0
20260503043520 61 259 2.0 8.0 0.00 0.00 0.00 81 1012.9
20260503043033 61 259 3.0 8.0 0.00 0.00 0.00 82 1013.0
20260503042521 61 257 3.0 9.0 0.00 0.00 0.00 81 1012.8
20260503042021 62 258 3.0 10.0 0.00 0.00 0.00 81 1012.8
20260503041535 62 256 5.0 11.0 0.00 0.00 0.00 80 1012.6
20260503041021 62 261 5.0 11.0 0.00 0.00 0.00 80 1012.6
20260503040520 62 241 4.0 11.0 0.00 0.00 0.00 80 1012.5
20260503040036 62 250 4.0 11.0 0.00 0.00 0.00 79 1012.5
20260503035520 62 244 3.0 9.0 0.00 0.00 0.00 79 1012.3
20260503035021 62 237 3.0 9.0 0.00 0.00 0.00 79 1012.2
20260503034540 63 238 3.0 12.0 0.00 0.00 0.00 78 1012.2
20260503034022 63 265 6.0 12.0 0.00 0.00 0.00 78 1012.1
20260503033520 63 238 4.0 15.0 0.00 0.00 0.00 77 1011.9
20260503033035 63 234 5.0 15.0 0.00 0.00 0.00 77 1011.8
20260503032520 63 227 6.0 15.0 0.00 0.00 0.00 76 1011.7
20260503032020 64 248 5.0 10.0 0.00 0.00 0.00 76 1011.7
20260503031532 64 250 5.0 11.0 0.00 0.00 0.00 76 1011.6
20260503031020 64 254 5.0 12.0 0.00 0.00 0.00 76 1011.6
20260503030524 64 227 6.0 13.0 0.00 0.00 0.00 76 1011.5
20260503030041 65 254 6.0 13.0 0.00 0.00 0.00 75 1011.4
20260503025521 65 262 4.0 12.0 0.00 0.00 0.00 75 1011.3
20260503025021 65 256 5.0 11.0 0.00 0.00 0.00 74 1011.2
20260503024535 65 252 3.0 11.0 0.00 0.00 0.00 74 1011.1
20260503024017 66 213 4.0 13.0 0.00 0.00 0.00 73 1011.1
20260503023520 66 232 5.0 13.0 0.00 0.00 0.00 72 1011.0
20260503023039 67 248 6.0 11.0 0.00 0.00 0.00 72 1011.0
20260503022521 67 221 4.0 13.0 0.00 0.00 0.00 71 1010.9
20260503022020 68 257 5.0 13.0 0.00 0.00 0.00 70 1010.7
20260503021535 68 215 5.0 11.0 0.00 0.00 0.00 69 1010.6
20260503021021 69 252 7.0 12.0 0.00 0.00 0.00 69 1010.6
20260503020520 70 223 5.0 12.0 0.00 0.00 0.00 68 1010.6
20260503020036 70 249 4.0 11.0 0.00 0.00 0.00 67 1010.6
20260503015521 71 215 5.0 11.0 0.00 0.00 0.00 66 1010.4
20260503015020 71 236 5.0 10.0 0.00 0.00 0.00 65 1010.4
20260503014540 72 252 2.0 9.0 0.00 0.00 0.00 65 1010.4
20260503014020 72 237 4.0 12.0 0.00 0.00 0.00 64 1010.4
20260503013520 73 221 5.0 12.0 0.00 0.00 0.00 64 1010.4
20260503013035 73 234 4.0 12.0 0.00 0.00 0.00 63 1010.3
20260503012522 73 217 5.0 12.0 0.00 0.00 0.00 63 1010.3
20260503012022 74 235 6.0 12.0 0.00 0.00 0.00 63 1010.4
20260503011536 74 196 4.0 10.0 0.00 0.00 0.00 62 1010.4
20260503011020 74 202 5.0 10.0 0.00 0.00 0.00 62 1010.3
20260503010521 74 211 3.0 11.0 0.00 0.00 0.00 62 1010.2
20260503010038 75 227 5.0 11.0 0.00 0.00 0.00 62 1010.3
20260503005520 75 230 5.0 11.0 0.00 0.00 0.00 62 1010.4
20260503005021 75 221 3.0 11.0 0.00 0.00 0.00 61 1010.4
20260503004538 75 232 3.0 11.0 0.00 0.00 0.00 62 1010.4
20260503004021 75 250 4.0 11.0 0.00 0.00 0.00 62 1010.5
20260503003521 75 253 5.0 11.0 0.00 0.00 0.00 62 1010.6
20260503003048 75 231 4.0 11.0 0.00 0.00 0.00 61 1010.6
20260503002520 75 232 4.0 12.0 0.00 0.00 0.00 63 1010.7
20260503002023 75 261 5.0 14.0 0.00 0.00 0.00 62 1010.6
20260503001603 75 270 7.0 14.0 0.00 0.00 0.00 62 1010.7
20260503001019 75 244 7.0 13.0 0.00 0.00 0.00 62 1010.6
20260503000525 75 210 6.0 14.0 0.00 0.00 0.00 62 1010.7
20260503000047 76 257 5.0 14.0 0.00 0.00 0.00 62 1010.6
20260502235521 76 235 7.0 12.0 0.00 0.00 0.00 61 1010.6
20260502235022 76 215 5.0 13.0 0.00 0.00 0.00 62 1010.6
20260502234542 76 265 7.0 13.0 0.00 0.00 0.00 62 1010.6
20260502234021 76 267 7.0 13.0 0.00 0.00 0.00 62 1010.6
20260502233519 76 254 5.0 12.0 0.00 0.00 0.00 61 1010.6
20260502233035 76 234 4.0 14.0 0.00 0.00 0.00 62 1010.6
20260502232518 76 240 5.0 14.0 0.00 0.00 0.00 62 1010.6